Location: Hiekkapohja
(62.3333°N, 25.7833°E)
Time: 19:22:27
(UTC+00:00)

USA 267 - Pass Details

Date: 07 August 2020
Orbit: 1102 x 1106 km, 123.0° (Epoch: 18 September)

Event Time Altitude Azimuth Distance (km) Brightness Sun altitude
Rises 00:28:37 0° 134° (SE) 3,915 6.0 -7.5°
Reaches altitude 10° 00:31:18 10° 142° (SE) 2,960 5.3 -7.4°
Maximum altitude 00:37:21 39° 210° (SSW) 1,608 3.7 -7.0°
Drops below altitude 10° 00:43:24 10° 277° (W) 2,969 5.3 -6.6°
Sets 00:46:07 0° 285° (WNW) 3,930 6.0 -6.4°
